Back to catalog

DELTA 1 DEB

AliveSSO
NORAD 13535·DEBRIS·🇺🇸 United States

Launched Jul 29, 1976 from Vandenberg Space Force Base

Loading…

Next Passes (next 24 hours)

TLE

FreshSource: Space-Track

Epoch: Sep 14, 2026, 09:35 UTC

1 13535U 76077EH  26257.39964329 -.00000033  00000-0  76218-4 0  9996
2 13535 101.7785 226.3511 0023647  99.6412  55.1425 12.39108150159840

Track DELTA 1 DEB in real time with AllMySat

Download on the App Store